TimeAKST,TemperatureF,Dew PointF,Humidity,Sea Level PressureIn,VisibilityMPH,Wind Direction,Wind SpeedMPH,Gust SpeedMPH,PrecipitationIn,Events,Conditions,WindDirDegrees,DateUTC
12:53 AM,5.0,-0.9,76,29.88,10.0,WNW,4.6,-,N/A,,Overcast,300,2012-11-05 09:53:00
1:53 AM,3.9,-2.0,76,29.90,10.0,NW,4.6,-,N/A,,Overcast,310,2012-11-05 10:53:00
3:53 AM,6.1,-0.9,73,29.93,10.0,Calm,Calm,-,N/A,,Overcast,0,2012-11-05 12:53:00
4:53 AM,3.9,-0.0,84,29.94,10.0,Calm,Calm,-,N/A,,Overcast,0,2012-11-05 13:53:00
5:53 AM,3.0,-2.0,80,29.96,10.0,Calm,Calm,-,N/A,,Overcast,0,2012-11-05 14:53:00
6:53 AM,-0.9,-6.0,79,29.99,10.0,Calm,Calm,-,N/A,,Scattered Clouds,0,2012-11-05 15:53:00
7:53 AM,-7.1,-11.0,83,30.00,10.0,Calm,Calm,-,N/A,,Partly Cloudy,0,2012-11-05 16:53:00
8:53 AM,-9.9,-15.0,78,30.02,10.0,Calm,Calm,-,N/A,,Partly Cloudy,0,2012-11-05 17:53:00
9:53 AM,-11.0,-15.0,83,30.04,10.0,Calm,Calm,-,N/A,,Partly Cloudy,0,2012-11-05 18:53:00
10:53 AM,-5.1,-9.9,80,30.05,10.0,Calm,Calm,-,N/A,,Clear,0,2012-11-05 19:53:00
11:53 AM,-2.0,-7.1,79,30.08,10.0,Calm,Calm,-,N/A,,Clear,0,2012-11-05 20:53:00
12:53 PM,1.0,-5.1,75,30.09,10.0,Calm,Calm,-,N/A,,Clear,0,2012-11-05 21:53:00
1:53 PM,3.0,-4.0,73,30.10,10.0,Calm,Calm,-,N/A,,Clear,0,2012-11-05 22:53:00
2:53 PM,3.0,-2.9,76,30.12,10.0,Calm,Calm,-,N/A,,Clear,0,2012-11-05 23:53:00
3:53 PM,-0.9,-6.0,79,30.13,10.0,Calm,Calm,-,N/A,,Clear,0,2012-11-06 00:53:00
4:53 PM,-5.1,-9.9,80,30.15,10.0,Calm,Calm,-,N/A,,Clear,0,2012-11-06 01:53:00
5:53 PM,-9.9,-15.0,78,30.17,10.0,Calm,Calm,-,N/A,,Clear,0,2012-11-06 02:53:00
6:53 PM,-13.0,-18.9,75,30.19,10.0,Calm,Calm,-,N/A,,Clear,0,2012-11-06 03:53:00
7:53 PM,-15.0,-20.9,75,30.21,10.0,Calm,Calm,-,N/A,,Clear,0,2012-11-06 04:53:00
8:02 PM,-16.6,-20.2,84,30.16,10.0,Calm,Calm,-,N/A,,Partly Cloudy,0,2012-11-06 05:02:00
8:53 PM,-17.0,-23.1,74,30.23,10.0,Calm,Calm,-,N/A,,Clear,0,2012-11-06 05:53:00
9:53 PM,-18.0,-25.1,70,30.25,10.0,Calm,Calm,-,N/A,,Clear,0,2012-11-06 06:53:00
10:53 PM,-18.0,-25.1,70,30.26,10.0,Calm,Calm,-,N/A,,Clear,0,2012-11-06 07:53:00
11:53 PM,-20.0,-26.0,74,30.27,10.0,Calm,Calm,-,N/A,,Clear,0,2012-11-06 08:53:00